Simultaneous Nadir Overpasses (SNOs) Predictions

Prediction of SNOs between LANDSAT-8 and METOP-B Satellite Orbit:

Table of predicted SNOs for the next 14.0 days since TLE Epoch: 10/2/2021
Index Date (LANDSAT-8) Time (LANDSAT-8) Lat,Lon (LANDSAT-8) SZA (LANDSAT-8 ) Date (METOP-B) Time (METOP-B) Lat,Lon (METOP-B) SZA (METOP-B ) Distance(km) Time Diff (sec)
1 10/02/2021 12:28:26 81.11, 32.66 87.17 10/02/2021 12:27:20 81.11, 32.77 87.16 1.97 66
2 10/02/2021 13:17:52 -81.12,-159.44 92.78 10/02/2021 13:18:00 -81.13,-159.49 92.78 0.96 8
3 10/05/2021 08:02:42 81.11, 99.17 88.29 10/05/2021 08:01:42 81.11, 99.15 88.26 0.29 60
4 10/05/2021 08:52:08 -81.13, -92.91 91.66 10/05/2021 08:52:22 -81.13, -93.07 91.67 2.75 14
5 10/08/2021 03:36:58 81.11, 165.62 89.38 10/08/2021 03:36:04 81.11, 165.51 89.35 1.99 54
6 10/08/2021 04:26:24 -81.13, -26.43 90.56 10/08/2021 04:26:43 -81.14, -26.29 90.53 2.44 19
7 10/10/2021 23:11:14 81.11,-127.97 90.46 10/10/2021 23:10:26 81.11,-128.15 90.42 3.18 48
8 10/11/2021 00:00:40 -81.13, 40.00 89.48 10/11/2021 00:01:05 -81.14, 40.09 89.46 1.52 25
9 10/13/2021 18:45:28 81.13, -61.24 91.57 10/13/2021 18:44:45 81.13, -61.08 91.57 2.82 43



Historial Predications of SNOs between LANDSAT-8 and METOP-B
